Location: Unspecified
(0.0000°N, 0.0000°E)
Time: 19:47:58
(UTC+00:00)

deb Briz - Pass Details

Date: 16 February 2026
Orbit: 1858 x 2172 km, 64.9° (Epoch: 11 March)

Event Time Altitude Azimuth Distance (km) Brightness Sun altitude
Rises 18:40:07 0° 299° (WNW) 5,340 ? -6.4°
Reaches altitude 10° 18:45:44 10° 277° (W) 4,291 ? -7.7°
Maximum altitude 18:50:55 14° 247° (WSW) 3,895 ? -9.0°
Drops below altitude 10° 18:56:05 10° 217° (SW) 4,232 ? -10.3°
Sets 19:01:40 0° 194° (SSW) 5,220 ? -11.6°
